This demonstration page uses our WeatherBlox Daily Observations layout. Learn more.

Left ArrowRight Arrow

Hourly Observations for April 1, 2015

Temp ( °F °C ) Dew Point ( °F °C ) Humidity (%) Winds ( mph kmh ) Pressure ( in mb ) Visibility ( mi km ) Precip ( " mm )
12:16 am 00:16 Clear 37 3 28 -2 70 70 Calm 30.09 1019 10 16.0934 N/A
12:36 am 00:36 Clear 36 2 30 -1 81 81 ESE 3 6 30.09 1019 10 16.0934 N/A
12:55 am 00:55 Clear 36 2 28 -2 75 75 E 3 6 30.09 1019 10 16.0934 N/A
1:16 am 01:16 Clear 34 1 28 -2 81 81 E 6 9 30.09 1019 10 16.0934 N/A
1:36 am 01:36 Clear 36 2 36 2 100 100 ESE 6 9 30.09 1019 10 16.0934 N/A
1:55 am 01:55 Clear 36 2 32 0 87 87 Calm 30.09 1019 10 16.0934 N/A
2:16 am 02:16 Clear 36 2 30 -1 81 81 Calm 30.09 1019 10 16.0934 N/A
2:36 am 02:36 Clear 37 3 32 0 81 81 SSE 7 11 30.09 1019 10 16.0934 N/A
2:55 am 02:55 Clear 37 3 28 -2 70 70 SSE 7 11 30.09 1019 10 16.0934 N/A
3:16 am 03:16 Clear 37 3 28 -2 70 70 SSE 6 9 30.09 1019 10 16.0934 N/A
3:35 am 03:35 Clear 37 3 28 -2 70 70 SSE 6 9 30.09 1019 10 16.0934 N/A
3:56 am 03:56 Clear 36 2 28 -2 75 75 SSE 6 9 30.09 1019 10 16.0934 N/A
4:16 am 04:16 Clear 37 3 32 0 81 81 SSE 7 11 30.09 1019 10 16.0934 N/A
4:35 am 04:35 Clear 36 2 32 0 87 87 SSE 7 11 30.09 1019 10 16.0934 N/A
4:56 am 04:56 Clear 36 2 30 -1 81 81 SSE 7 11 30.09 1019 10 16.0934 N/A
5:16 am 05:16 Clear 36 2 30 -1 81 81 S 7 11 30.09 1019 10 16.0934 N/A
5:35 am 05:35 Clear 36 2 32 0 87 87 S 8 13 30.09 1019 10 16.0934 N/A
5:56 am 05:56 Clear 37 3 32 0 81 81 S 7 11 30.09 1019 10 16.0934 N/A
6:16 am 06:16 Clear 36 2 32 0 87 87 S 6 9 30.09 1019 7 11.26538 N/A
6:35 am 06:35 Clear 36 2 34 1 93 93 S 6 9 30.12 1020 7 11.26538 N/A
6:56 am 06:56 Clear 36 2 36 2 100 100 S 5 7 30.12 1020 7 11.26538 N/A
7:16 am 07:16 Clear 36 2 36 2 100 100 S 6 9 30.12 1020 7 11.26538 N/A
7:35 am 07:35 Sunny 36 2 36 2 100 100 S 7 11 30.15 1021 7 11.26538 N/A
7:56 am 07:56 Sunny 37 3 37 3 100 100 S 6 9 30.15 1021 5 8.0467 N/A
8:15 am 08:15 Sunny 37 3 36 2 93 93 S 5 7 30.15 1021 5 8.0467 N/A
8:36 am 08:36 Sunny 39 4 34 1 81 81 S 6 9 30.12 1020 5 8.0467 N/A
8:56 am 08:56 Sunny 41 5 32 0 70 70 S 10 17 30.15 1021 7 11.26538 N/A
9:15 am 09:15 Sunny 43 6 32 0 66 66 S 12 19 30.15 1021 7 11.26538 N/A
9:36 am 09:36 Sunny 45 7 32 0 61 61 S 12 19 30.15 1021 7 11.26538 N/A
9:56 am 09:56 Sunny 46 8 32 0 57 57 S 15 24 30.15 1021 10 16.0934 N/A
10:56 am 10:56 Sunny 52 11 30 -1 44 44 S 12 19 30.18 1022 10 16.0934 N/A
11:15 am 11:15 Sunny 54 12 28 -2 38 38 SSW 9 15 30.18 1022 10 16.0934 N/A
11:36 am 11:36 Sunny 55 13 28 -2 36 36 S 9 15 30.15 1021 10 16.0934 N/A
11:56 am 11:56 Sunny 57 14 27 -3 31 31 S 9 15 30.15 1021 10 16.0934 N/A
12:15 pm 12:15 Sunny 59 15 23 -5 25 25 S 7 11 30.12 1020 10 16.0934 N/A
12:36 pm 12:36 Sunny 61 16 21 -6 22 22 S 7 11 30.12 1020 10 16.0934 N/A
12:56 pm 12:56 Sunny 61 16 21 -6 22 22 S 8 13 30.12 1020 10 16.0934 N/A
1:15 pm 13:15 Sunny 63 17 19 -7 19 19 SSE 10 17 30.12 1020 10 16.0934 N/A
1:36 pm 13:36 Sunny 63 17 16 -9 16 16 SSW 9 15 30.12 1020 10 16.0934 N/A
1:55 pm 13:55 Sunny 63 17 16 -9 16 16 S 9 15 30.12 1020 10 16.0934 N/A
2:16 pm 14:16 Sunny 64 18 16 -9 15 15 SE 8 13 30.09 1019 10 16.0934 N/A
2:36 pm 14:36 Sunny 64 18 14 -10 14 14 SSE 12 19 30.09 1019 10 16.0934 N/A
2:55 pm 14:55 Sunny 64 18 16 -9 15 15 SSE 9 15 30.09 1019 10 16.0934 N/A
3:16 pm 15:16 Sunny 66 19 14 -10 13 13 SSE 12 19 30.06 1018 10 16.0934 N/A
3:36 pm 15:36 Sunny 66 19 14 -10 13 13 S 9 15 30.06 1018 10 16.0934 N/A
3:55 pm 15:55 Sunny 66 19 14 -10 13 13 S 10 17 30.06 1018 10 16.0934 N/A
4:16 pm 16:16 Sunny 66 19 14 -10 13 13 S 6 9 30.06 1018 10 16.0934 N/A
4:36 pm 16:36 Sunny 66 19 12 -11 12 12 S 12 19 30.06 1018 10 16.0934 N/A
4:55 pm 16:55 Sunny 68 20 14 -10 12 12 SSW 10 17 30.06 1018 10 16.0934 N/A
5:16 pm 17:16 Sunny 68 20 10 -12 10 10 SSW 13 20 30.06 1018 10 16.0934 N/A
5:36 pm 17:36 Sunny 66 19 14 -10 13 13 S 13 20 30.03 1017 10 16.0934 N/A
5:55 pm 17:55 Sunny 66 19 14 -10 13 13 S 8 13 30.06 1018 10 16.0934 N/A
6:16 pm 18:16 Sunny 66 19 14 -10 13 13 S 9 15 30.03 1017 10 16.0934 N/A
6:35 pm 18:35 Sunny 66 19 16 -9 14 14 SSW 10 17 30.03 1017 10 16.0934 N/A
6:56 pm 18:56 Sunny 64 18 18 -8 16 16 S 10 17 30.03 1017 10 16.0934 N/A
7:16 pm 19:16 Sunny 64 18 19 -7 18 18 S 9 15 30.03 1017 10 16.0934 N/A
7:35 pm 19:35 Sunny 63 17 19 -7 19 19 S 7 11 30.03 1017 10 16.0934 N/A
7:56 pm 19:56 Sunny 61 16 21 -6 22 22 S 6 9 30.03 1017 10 16.0934 N/A
8:16 pm 20:16 Clear 59 15 23 -5 25 25 S 6 9 30.03 1017 10 16.0934 N/A
8:35 pm 20:35 Clear 57 14 23 -5 27 27 S 7 11 30.03 1017 10 16.0934 N/A
8:56 pm 20:56 Clear 57 14 25 -4 29 29 S 6 9 30.03 1017 10 16.0934 N/A
9:16 pm 21:16 Clear 54 12 27 -3 35 35 SSE 6 9 30.03 1017 10 16.0934 N/A
9:35 pm 21:35 Clear 54 12 27 -3 35 35 SSE 6 9 30.03 1017 10 16.0934 N/A
9:56 pm 21:56 Clear 54 12 27 -3 35 35 S 6 9 30.03 1017 10 16.0934 N/A
10:16 pm 22:16 Clear 54 12 25 -4 33 33 S 7 11 30.03 1017 10 16.0934 N/A
10:36 pm 22:36 Clear 54 12 25 -4 33 33 SSE 7 11 30.03 1017 10 16.0934 N/A
10:55 pm 22:55 Clear 54 12 27 -3 35 35 SSE 7 11 30.03 1017 10 16.0934 N/A
11:16 pm 23:16 Clear 54 12 27 -3 35 35 S 8 13 30.03 1017 10 16.0934 N/A
11:36 pm 23:36 Clear 52 11 25 -4 35 35 S 8 13 30.03 1017 10 16.0934 N/A
11:55 pm 23:55 Clear 52 11 25 -4 35 35 SSE 7 11 30.03 1017 10 16.0934 N/A

Powered by AerisWeather